EW0322 Weather Reports


Display with metric or nautical units.
time (UTC)temp
F
wind
direction
speed
MPH
gust
MPH
rain 1hr
in
rain 24hr
in
rain mn
in
humidity
%
barometer
mb
20260901133031 75 220 2.0 5.0 0.00 0.00 0.00 50 1006.9
20260901131526 75 219 1.0 5.0 0.00 0.00 0.00 50 1006.7
20260901130022 74 209 2.0 7.0 0.00 0.00 0.00 50 1006.5
20260901124520 75 202 3.0 7.0 0.00 0.00 0.00 49 1006.5
20260901123017 75 202 2.0 7.0 0.00 0.00 0.00 47 1006.4
20260901121518 75 202 0.0 4.0 0.00 0.00 0.00 46 1006.2
20260901120016 75 202 1.0 3.0 0.00 0.00 0.00 47 1006.0
20260901114518 76 202 0.0 5.0 0.00 0.00 0.00 46 1005.9
20260901113011 76 202 0.0 1.0 0.00 0.00 0.00 47 1005.8
20260901111511 77 202 0.0 0.0 0.00 0.00 0.00 47 1005.4
20260901110010 77 202 0.0 0.0 0.00 0.00 0.00 46 1005.2
20260901104509 77 202 0.0 3.0 0.00 0.00 0.00 45 1005.2
20260901103008 77 202 0.0 2.0 0.00 0.00 0.00 45 1005.3
20260901101507 77 202 0.0 1.0 0.00 0.00 0.00 45 1005.3
20260901100008 77 202 0.0 1.0 0.00 0.00 0.00 45 1005.4
20260901094507 77 202 0.0 0.0 0.00 0.00 0.00 45 1005.5
20260901093005 77 202 0.0 6.0 0.00 0.00 0.00 44 1005.4
20260901091504 77 202 2.0 5.0 0.00 0.00 0.00 44 1005.5
20260901090006 77 202 4.0 7.0 0.00 0.00 0.00 44 1005.7
20260901084503 78 202 2.0 7.0 0.00 0.00 0.00 44 1005.8
20260901083002 77 202 1.0 8.0 0.00 0.00 0.00 46 1005.6
20260901081501 78 200 2.0 4.0 0.00 0.00 0.00 48 1005.6
20260901080104 77 200 0.0 3.0 0.00 0.00 0.00 49 1005.6
20260901080003 77 200 0.0 3.0 0.00 0.00 0.00 49 1005.6
20260901074609 77 199 2.0 4.0 0.00 0.00 0.00 50 1005.8
20260901073059 76 200 0.0 5.0 0.00 0.00 0.00 51 1006.0
20260901071531 76 199 2.0 7.0 0.00 0.00 0.00 52 1006.3
20260901070035 76 200 4.0 10.0 0.00 0.00 0.00 52 1006.3
20260901064530 77 190 4.0 8.0 0.00 0.00 0.00 50 1006.4
20260901063030 78 188 4.0 8.0 0.00 0.00 0.00 46 1006.2
20260901061520 80 206 4.0 10.0 0.00 0.00 0.00 42 1006.3
20260901060016 81 319 2.0 5.0 0.00 0.00 0.00 39 1005.9
20260901054529 81 319 2.0 9.0 0.00 0.00 0.00 39 1005.2
20260901053013 82 317 5.0 10.0 0.00 0.00 0.00 39 1005.1
20260901051515 82 314 3.0 8.0 0.00 0.00 0.00 40 1005.1
20260901050012 82 311 2.0 9.0 0.00 0.00 0.00 40 1005.2
20260901044514 81 311 1.0 6.0 0.00 0.00 0.00 40 1005.0
20260901043011 81 311 0.0 3.0 0.00 0.00 0.00 40 1004.6
20260901041507 80 311 1.0 6.0 0.00 0.00 0.00 41 1004.2
20260901040007 80 311 1.0 8.0 0.00 0.00 0.00 42 1004.0
20260901034515 79 296 2.0 8.0 0.00 0.00 0.00 44 1003.8
20260901033009 79 288 1.0 8.0 0.00 0.00 0.00 45 1003.2
20260901031512 79 249 3.0 12.0 0.00 0.00 0.00 45 1002.7
20260901030005 80 251 3.0 9.0 0.00 0.00 0.00 45 1002.6
20260901024503 82 259 2.0 11.0 0.00 0.00 0.00 42 1002.5
20260901023005 84 238 1.0 8.0 0.00 0.00 0.00 36 1002.0
20260901021605 84 217 4.0 14.0 0.00 0.00 0.00 35 1001.9
20260901021502 84 246 4.0 14.0 0.00 0.00 0.00 35 1001.8
20260901020101 85 219 5.0 19.0 0.00 0.00 0.00 33 1001.9
20260901014559 86 226 9.0 19.0 0.00 0.00 0.00 33 1001.5
20260901013111 89 227 7.0 17.0 0.00 0.00 0.00 30 1000.6
20260901011558 95 217 6.0 11.0 0.00 0.00 0.00 18 1000.2
20260901010057 95 161 4.0 8.0 0.00 0.00 0.00 19 999.5
20260901004600 96 175 4.0 7.0 0.00 0.00 0.00 20 999.4
20260901003055 97 198 1.0 9.0 0.00 0.00 0.00 19 999.5
20260901001554 97 199 0.0 6.0 0.00 0.00 0.00 19 999.4
20260901000054 97 199 2.0 8.0 0.00 0.00 0.00 19 999.5
20260831234559 98 198 0.0 6.0 0.00 0.00 0.00 18 999.3
20260831233055 99 200 1.0 5.0 0.00 0.00 0.00 18 999.2
20260831231552 99 200 2.0 8.0 0.00 0.00 0.00 18 999.3
20260831230051 98 209 1.0 6.0 0.00 0.00 0.00 18 999.4
20260831224550 99 209 3.0 7.0 0.00 0.00 0.00 18 999.6
20260831223050 99 209 0.0 4.0 0.00 0.00 0.00 17 999.8
20260831221600 98 209 1.0 6.0 0.00 0.00 0.00 17 1000.1
20260831220045 99 214 1.0 7.0 0.00 0.00 0.00 19 1000.1
20260831214544 99 214 1.0 7.0 0.00 0.00 0.00 19 1000.4
20260831213044 98 205 3.0 9.0 0.00 0.00 0.00 19 1000.8
20260831211539 97 207 4.0 9.0 0.00 0.00 0.00 21 1001.1
20260831210036 97 217 3.0 6.0 0.00 0.00 0.00 21 1001.3
20260831204539 99 246 1.0 4.0 0.00 0.00 0.00 20 1001.7
20260831203035 99 235 2.0 5.0 0.00 0.00 0.00 21 1002.0
20260831201531 98 234 0.0 5.0 0.00 0.00 0.00 21 1002.4
20260831200100 99 232 1.0 5.0 0.00 0.00 0.00 21 1002.6
20260831194535 97 232 0.0 7.0 0.00 0.00 0.00 22 1002.8
20260831193030 96 256 0.0 8.0 0.00 0.00 0.00 22 1003.1
20260831191528 98 265 0.0 4.0 0.00 0.00 0.00 22 1003.2
20260831190034 97 265 2.0 6.0 0.00 0.00 0.00 22 1003.5
20260831184522 96 265 0.0 6.0 0.00 0.00 0.00 23 1003.8
20260831183020 94 232 0.0 3.0 0.00 0.00 0.00 23 1003.9
20260831181523 93 232 0.0 5.0 0.00 0.00 0.00 24 1004.1
20260831180014 93 232 1.0 5.0 0.00 0.00 0.00 23 1004.2
20260831174509 90 232 0.0 7.0 0.00 0.00 0.00 26 1004.3
20260831173006 90 233 2.0 7.0 0.00 0.00 0.00 26 1004.5
20260831171502 91 233 0.0 6.0 0.00 0.00 0.00 25 1004.5
20260831170059 91 233 0.0 3.0 0.00 0.00 0.00 25 1004.6
20260831164554 89 233 0.0 3.0 0.00 0.00 0.00 27 1004.6
20260831163050 90 233 0.0 4.0 0.00 0.00 0.00 26 1004.6
20260831161546 89 233 0.0 2.0 0.00 0.00 0.00 27 1004.6
20260831160043 90 233 0.0 4.0 0.00 0.00 0.00 27 1004.4
20260831154539 88 232 0.0 6.0 0.00 0.00 0.00 27 1004.3
20260831153034 88 232 0.0 4.0 0.00 0.00 0.00 27 1004.3
20260831151530 87 232 0.0 4.0 0.00 0.00 0.00 29 1004.2
20260831150026 85 232 1.0 5.0 0.00 0.00 0.00 31 1004.2
20260831144521 82 232 0.0 5.0 0.00 0.00 0.00 34 1004.2
20260831143018 81 234 3.0 8.0 0.00 0.00 0.00 35 1004.0
20260831141521 81 240 0.0 7.0 0.00 0.00 0.00 35 1003.8
20260831140031 81 238 1.0 5.0 0.00 0.00 0.00 35 1003.9
20260831134512 79 237 2.0 8.0 0.00 0.00 0.00 36 1003.2